OpenBCM V1.13 (Linux)

Packet Radio Mailbox

DB0FHN

[JN59NK Nuernberg]

 Login: GUEST





  
CX2SA  > KEPS     06.11.04 03:02l 165 Lines 7766 Bytes #999 (0) @ AMSAT
BID : ORB04309.N
Read: GUEST DL7NDR
Subj: 2Line Orbital Elements 04309.AMSAT
Path: DB0FHN<DB0FOR<DB0MRW<DB0RGB<OK0PPL<DB0RES<ON0AR<7M3TJZ<EA5AKC<CX2SA
Sent: 041106/0055Z @:CX2SA.LAV.URY.SA #:35293 [Minas] FBB7.00e $:ORB04309.N
From: CX2SA@CX2SA.LAV.URY.SA
To  : KEPS@AMSAT


HR AMSAT ORBITAL ELEMENTS FOR AMATEUR SATELLITES IN NASA FORMAT
FROM WA5QGD FORT WORTH,TX November 4, 2004
SEND SUBSCRIBE/UNSUBSCRIBE TO majordomo@amsat.org ONLY
BID: ORB04309.N

DECODE 2-LINE ELSETS WITH THE FOLLOWING KEY:
1 AAAAAU 00  0  0 BBBBB.BBBBBBBB  .CCCCCCCC  00000-0  00000-0 0  DDDZ
2 AAAAA EEE.EEEE FFF.FFFF GGGGGGG HHH.HHHH III.IIII JJ.JJJJJJJJKKKKKZ
KEY: A-CATALOGNUM B-EPOCHTIME C-DECAY D-ELSETNUM E-INCLINATION F-RAAN
G-ECCENTRICITY H-ARGPERIGEE I-MNANOM J-MNMOTION K-ORBITNUM Z-CHECKSUM

TO ALL RADIO AMATEURS BT

AO-07
1 07530U 74089B   04309.17763915 -.00000029  00000-0  10000-3 0  3426
2 07530 101.6650 353.6339 0012067 311.2752  48.7281 12.53569259371452
AO-10
1 14129U 83058B   04306.55283818  .00000011  00000-0  10000-3 0 01183
2 14129 026.7537 063.7509 6032723 137.1310 290.2554 02.05867859160844
UO-11
1 14781U 84021B   04309.41958227  .00000941  00000-0  13459-3 0  6266
2 14781  98.1892 296.6737 0009218   9.3271 350.8110 14.79048683108571
RS-10/11
1 18129U 87054A   04308.80215563  .00000040  00000-0  27021-4 0  5312
2 18129  82.9271  44.8484 0010573 299.9672  60.0431 13.72747065870151
FO-20
1 20480U 90013C   04308.61647603  .00000004  00000-0  77430-4 0  7329
2 20480  99.0278 159.7126 0540773  30.9729 332.2115 12.83343072690564
RS-12/13
1 21089U 91007A   04309.88025013  .00000025  00000-0  10139-4 0  7544
2 21089  82.9195  77.3535 0029493 347.8416  12.2022 13.74442481689680
RS-15
1 23439U 94085A   04308.86156580 -.00000039  00000-0  10597-3 0 08246
2 23439 064.8125 111.9515 0157146 356.2101 003.7620 11.27550428405983
FO-29
1 24278U 96046B   04309.24102120 -.00000015  00000-0  19385-4 0  8194
2 24278  98.5795  22.8259 0351481  39.0500 323.5456 13.52904146405771
SO-33
1 25509U 98061B   04308.93216751  .00000733  00000-0  13582-3 0  2284
2 25509  31.4317 225.7453 0355763 357.2674   2.6006 14.27893958314607
AO-40
1 26609U 00072B   04306.40356977 -.00000097  00000-0  10000-3 0  4543
2 26609   9.4693 336.4516 7961042 334.5800   1.8362  1.25585198 18391
UO-14
1 20437U 90005B   04309.59798944  .00000043  00000-0  31382-4 0  6301
2 20437  98.2076 325.8171 0010463 137.4198 222.7822 14.31378166771903
AO-16
1 20439U 90005D   04309.64361409  .00000099  00000-0  52490-4 0  3199
2 20439  98.2321 340.6707 0011194 145.8272 214.3646 14.31637942771963
WO-18
1 20441U 90005F   04309.59007304  .00000083  00000-0  46365-4 0  5095
2 20441  98.2460 344.7390 0012123 146.5718 213.6235 14.31712669772012
LO-19
1 20442U 90005G   04308.65674215  .00000106  00000-0  54996-4 0 02477
2 20442 098.2573 348.0027 0012071 148.9960 211.1936 14.31884615771942
UO-22
1 21575U 91050B   04309.19683419  .00000245  00000-0  92021-4 0  2455
2 21575  98.2128 277.4277 0008195  53.8799 306.3148 14.39428623698136
KO-23
1 22077U 92052B   04308.92185466 -.00000037  00000-0  10000-3 0 03249
2 22077 066.0838 258.2118 0011344 308.5739 051.4262 12.86426932574612
AO-27
1 22825U 93061C   04309.17199232  .00000120  00000-0  63361-4 0  9792
2 22825  98.2455 310.7116 0008112 202.5877 157.4965 14.29093764579087
IO-26
1 22826U 93061D   04309.10123768  .00000111  00000-0  59520-4 0  6493
2 22826  98.2440 311.9319 0008212 204.4731 155.6061 14.29331073579132
KO-25
1 22828U 93061F   04308.58821731  .00000098  00000-0  54016-4 0  9134
2 22828  98.2365 311.6771 0009750 182.0292 178.0839 14.29649605547286
TO-31
1 25396U 98043C   04308.94715286 -.00000043  00000-0  00000-0 0 01244
2 25396 098.5616 016.6362 0004154 117.4447 242.7157 14.23639095328360
GO-32
1 25397U 98043D   04309.85243488  .00000094  00000-0  60434-4 0  5965
2 25397  98.5506  15.4457 0002269 122.7304 237.4094 14.23057547328421
UO-36
1 25693U 99021A   04309.83755031  .00000474  00000-0  83442-4 0  6104
2 25693  64.5605 252.6598 0044543 240.0964 119.5712 14.78410660298658
SO-41
1 26545U 00057A   04309.17008447  .00000764  00000-0  11938-3 0  9195
2 26545  64.5583 270.6482 0025104 345.0112  15.0203 14.79904846221628
MO-46
1 26548U 00057D   04309.03629167  .00000924  00000-0  13236-3 0   193
2 26548  64.5573 256.4785 0024943 330.3105  29.6540 14.82471544221901
SO-42
1 26549U 00057E   04309.39587322  .00000715  00000-0  11569-3 0  9777
2 26549  64.5526 277.3590 0025042 356.4409   3.6510 14.78794401221514
NO-44
1 26931U 01043C   04309.84851382  .00000008  00000-0  35516-4 0  8917
2 26931  67.0515  85.5602 0006996 271.6550  88.3776 14.29333361161708
AO-49
1 27605U 02058A   04308.91681559  .00000365  00000-0  76737-4 0  5774
2 27605  64.5563 100.2097 0084574 284.2288  74.9433 14.71958383100697
SO-50
1 27607U 02058C   04308.92264374  .00000531  00000-0  10418-3 0  5586
2 27607  64.5564 104.5785 0085573 283.1100  76.0458 14.70765766100603
AO-51
1 28375U 04025K   04309.20406646  .00000088  00000-0  39742-4 0  1009
2 28375  98.2441  14.3120 0083855 189.8430 170.1116 14.40402438 18228
NOAA-10
1 16969U 86073A   04309.29114420 -.00000066  00000-0 -88108-5 0  4544
2 16969  98.7621 308.5684 0013265  70.8926 289.3687 14.27220220943011
NOAA-11
1 19531U 88089A   04309.32332293 -.00000144  00000-0 -51544-4 0  3139
2 19531  98.8600  32.2493 0011043 224.0464 135.9850 14.14734698831130
NOAA-12
1 21263U 91032A   04309.42060802  .00000225  00000-0  11407-3 0  7989
2 21263  98.6834 295.7700 0012910   7.1242 353.0128 14.25424631700228
MET-3/5
1 21655U 91056A   04308.92632533  .00000051  00000-0  10000-3 0 06625
2 21655 082.5515 317.7987 0014481 076.2913 283.9820 13.16996819635666
MET-2/21
1 22782U 93055A   04309.65418480  .00000158  00000-0  12959-3 0   472
2 22782  82.5475  79.0954 0022800  36.6318 323.6391 13.83573247564529
OKEAN-4
1 23317U 94066A   04309.86399278  .00001006  00000-0  12355-3 0  4631
2 23317  82.5365 106.5191 0022944 151.5158 208.7324 14.81937032542686
NOAA-14
1 23455U 94089A   04309.26800678 -.00000067  00000-0 -10874-4 0  3355
2 23455  99.1240 347.5646 0008519 273.4061  86.6143 14.13502272507723
SICH-1
1 23657U 95046A   04308.92391699  .00000890  00000-0  11144-3 0 03142
2 23657 082.5274 248.1915 0024823 139.1464 221.1616 14.80965643494619
NOAA-15
1 25338U 98030A   04309.23020945  .00000107  00000-0  64524-4 0  7847
2 25338  98.5185 318.3904 0009702 298.8410  61.1800 14.24462388336726
RESURS
1 25394U 98043A   04309.23256205  .00000098  00000-0  61115-4 0  9397
2 25394  98.5689  18.5316 0002415  87.2719 272.8736 14.24031481328433
FENGYUN1
1 25730U 99025A   04309.61365615 -.00000305  00000-0 -14433-3 0  2712
2 25730  98.6076 314.4300 0014600  24.7758 335.4114 14.11780705282821
OKEAN-0
1 25860U 99039A   04308.94233189  .00000355  00000-0  62453-4 0 03020
2 25860 097.7832 338.4634 0001126 127.0441 233.0870 14.73139512284844
NOAA-16
1 26536U 00055A   04309.19844700  .00000337  00000-0  20801-3 0   865
2 26536  98.9813 260.7424 0010440 346.6761  13.4108 14.12171222212307
NOAA-17
1 27453U 02032A   04309.31447040  .00000245  00000-0  12676-3 0  1085
2 27453  98.6863  19.9643 0011334 352.2673   7.8371 14.23588786122840
HUBBLE
1 20580U 90037B   04308.30742512  .00001709  00000-0  12329-3 0  1981
2 20580  28.4694 300.2419 0003218  30.9754 329.1025 14.99396811596307
UARS
1 21701U 91063B   04309.70034931  .00000760  00000-0  73641-4 0  3029
2 21701  56.9815  19.9514 0003926  95.7961 264.3524 15.03664958719722
PO-34
1 25520U 98064B   04309.50999602  .00002071  00000-0  95521-4 0   455
2 25520  28.4598  13.9707 0005687 297.0474  62.9544 15.15855909332453
ISS
1 25544U 98067A   04309.83856481  .00029611  00000-0  24192-3 0   710
2 25544  51.6366 328.0665 0008379 318.5922  41.1748 15.70273312340403
OO-38
1 26063U 00004C   04308.53969314  .00000102  00000-0  55587-4 0  2019
2 26063 100.2266 121.0474 0036736 330.6850  29.2269 14.35677687249914
NO-45
1 26932U 01043D   04309.83427112  .00000056  00000-0  54259-4 0  8836
2 26932  67.0570  85.2467 0006694 285.3151  74.7209 14.29450812161734


Read previous mail | Read next mail


 11.09.2026 07:30:43lGo back Go up